[[{"header":{"parameterUnit":"m.s-1","parameterCategory":1,"la1":30.2992,"la2":30.254,"lo1":-89.0895,"lo2":-89.0443,"dy":0.0025,"dx":0.0025,"nx":19,"ny":19,"refTime":"2026-04-26T09:00:00:Z","depth":0,"parameterNumber":2,"parameterNumberName":"U-component_of_WINDS"},"data":[0,0,0,2.17,2.1703,2.1842,2.1843,2.2021,2.2023,0,0,0,0,0,0,0,0,0,0,0,2.1658,2.1659,2.17,2.1703,2.1842,2.1843,2.2021,2.2023,0,0,0,0,0,0,0,0,0,0,0,2.1658,2.1659,2.1661,2.1704,2.1842,2.1843,2.202,2.1916,0,0,0,0,0,0,0,0,0,0,2.1781,2.1741,2.1659,2.1661,2.1705,2.1842,2.1843,2.1911,2.1922,2.1958,0,2.1988,0,2.2008,2.2035,2.2035,0,0,0,2.1705,2.1731,2.1769,2.1661,2.1706,2.1842,2.178,2.1917,2.193,2.1974,2.1991,2.1997,2.2011,2.2036,2.2037,2.2232,2.2233,0,0,2.1697,2.1683,2.176,2.1778,2.1754,2.1775,2.1784,2.1925,2.1944,2.1991,2.2002,2.2014,2.2037,2.2038,2.2231,2.2232,0,0,0,2.1674,2.1678,2.1712,2.177,2.1795,2.1779,2.1789,2.1938,2.195,2.2004,2.2016,2.2038,2.204,2.223,2.2231,2.2256,0,0,0,2.167,2.1665,2.1709,2.1702,2.1792,2.1868,2.1799,2.194,2.1957,2.2015,2.2038,2.2042,2.2229,2.2231,2.2253,2.227,0,0,0,2.165,2.1662,2.1682,2.1701,2.176,2.1866,2.1886,2.1944,2.1964,2.2035,2.2042,2.2229,2.2231,2.2251,2.2266,2.2314,0,0,0,2.1625,2.1705,2.1682,2.1777,2.1758,2.188,2.1885,2.1978,2.2042,2.2039,2.2229,2.2231,2.225,2.2264,2.2311,2.2349,2.2365,0,0,2.1718,2.1716,2.1773,2.1756,2.1877,2.186,2.1987,2.206,2.2082,2.2181,2.2186,2.2254,2.2266,2.2313,2.2461,2.2473,0,0,0,2.1797,2.1837,2.1873,2.1931,2.1988,2.2037,2.2093,2.212,2.2204,2.2129,2.2287,2.2294,2.2323,2.2341,2.2352,2.2376,2.224,2.224,2.224,2.1909,2.1929,2.2023,2.2059,2.2117,2.2171,2.222,2.2266,2.2273,2.231,2.2338,2.2425,2.2446,2.2454,2.2479,2.2363,2.2363,2.2363,2.2363,2.2044,2.2103,2.2107,2.2199,2.222,2.2299,2.2356,2.2357,2.2433,2.2406,2.2432,2.2396,2.2466,2.2489,2.2365,2.2365,2.2365,2.2364,2.2364,2.2117,2.2147,2.2178,2.2262,2.2326,2.2362,2.2434,2.2453,2.2471,2.2497,2.2527,2.2527,2.2526,2.2511,2.2511,2.2512,2.2512,2.2512,2.2512,2.2178,2.2211,2.2267,2.2332,2.2371,2.2425,2.248,2.252,2.2568,2.2576,2.2576,2.2577,2.247,2.244,2.2517,2.2516,2.2515,2.2515,2.2515,2.2302,2.2276,2.2364,2.2402,2.2478,2.2539,2.2562,2.264,2.2676,2.271,2.2706,2.2625,2.2624,2.2616,2.2592,2.2703,2.2703,2.2703,2.2703,2.236,2.2361,2.2453,2.2512,2.2574,2.2602,2.27,2.2744,2.2787,2.281,2.2797,2.2768,2.2759,2.2763,2.2752,2.2729,2.2873,2.2873,2.2874,2.2435,2.2443,2.2522,2.256,2.2621,2.2673,2.2765,2.2834,2.2877,2.2881,2.2827,2.282,2.2773,2.2757,2.2756,2.2739,2.2697,0,0]},{"header":{"parameterUnit":"m.s-1","parameterCategory":1,"la1":30.2992,"la2":30.254,"lo1":-89.0895,"lo2":-89.0443,"dy":0.0025,"dx":0.0025,"nx":19,"ny":19,"refTime":"2026-04-26T09:00:00:Z","depth":0,"parameterNumber":3,"parameterNumberName":"V-component_of_WINDS"},"data":[0,0,0,3.0561,3.0565,3.0757,3.0758,3.0999,3.1001,0,0,0,0,0,0,0,0,0,0,0,3.0503,3.0505,3.056,3.0565,3.0757,3.0758,3.0999,3.1001,0,0,0,0,0,0,0,0,0,0,0,3.0502,3.0504,3.0506,3.0566,3.0757,3.0758,3.0998,3.0854,0,0,0,0,0,0,0,0,0,0,3.0668,3.0615,3.0504,3.0507,3.0567,3.0757,3.0758,3.0848,3.0863,3.0911,0,3.0955,0,3.0982,3.1018,3.1018,0,0,0,3.0565,3.0602,3.0655,3.0507,3.0569,3.0757,3.0671,3.0856,3.0874,3.0932,3.0958,3.0967,3.0986,3.1019,3.102,3.1299,3.1301,0,0,3.0554,3.0537,3.0642,3.0666,3.0639,3.0664,3.0676,3.0867,3.0894,3.0959,3.0973,3.099,3.1021,3.1022,3.1298,3.13,0,0,0,3.0524,3.053,3.0578,3.0656,3.0691,3.067,3.0684,3.0886,3.0903,3.0976,3.0993,3.1022,3.1025,3.1297,3.1299,3.1348,0,0,0,3.0517,3.0512,3.0573,3.0564,3.0688,3.0792,3.0698,3.089,3.0912,3.0992,3.1022,3.1027,3.1295,3.1298,3.1343,3.1373,0,0,0,3.0491,3.0509,3.0537,3.0563,3.0645,3.0789,3.0817,3.0895,3.0923,3.1019,3.1028,3.1294,3.1297,3.1339,3.1367,3.1442,0,0,0,3.0457,3.0577,3.0537,3.0678,3.0644,3.0818,3.0816,3.0947,3.1035,3.1023,3.1296,3.1299,3.1338,3.1363,3.1437,3.1502,3.1527,0,0,3.0598,3.0593,3.0677,3.0648,3.0825,3.079,3.0975,3.1071,3.1094,3.1229,3.1236,3.1345,3.1367,3.1441,3.1675,3.1695,0,0,0,3.0716,3.0776,3.0827,3.0912,3.0989,3.1057,3.1127,3.1162,3.1278,3.1161,3.1392,3.1406,3.145,3.1482,3.1499,3.1537,3.1312,3.1312,3.1312,3.0892,3.0917,3.1058,3.1106,3.1187,3.1258,3.1326,3.1385,3.1386,3.144,3.148,3.1619,3.1656,3.1668,3.1708,3.1516,3.1516,3.1517,3.1517,3.1102,3.1191,3.119,3.1326,3.1351,3.1464,3.1536,3.1533,3.164,3.1591,3.1631,3.1575,3.169,3.1726,3.1521,3.152,3.1519,3.1519,3.1519,3.122,3.1267,3.1309,3.1433,3.1525,3.1568,3.1672,3.1691,3.1709,3.1749,3.1793,3.1792,3.1793,3.1768,3.1769,3.1769,3.177,3.177,3.177,3.1326,3.1371,3.1458,3.155,3.1606,3.1682,3.1753,3.1808,3.1874,3.1879,3.1879,3.1874,3.1697,3.1651,3.1778,3.1777,3.1776,3.1775,3.1774,3.1529,3.1486,3.162,3.1676,3.1785,3.1874,3.1897,3.2007,3.2054,3.2105,3.2091,3.1957,3.1952,3.1939,3.1902,3.2086,3.2086,3.2086,3.2086,3.1628,3.1628,3.1769,3.1857,3.1946,3.198,3.2128,3.2184,3.2234,3.2265,3.2241,3.2193,3.2179,3.2183,3.2164,3.213,3.2367,3.2368,3.2368,3.1754,3.1764,3.1887,3.1938,3.2024,3.2097,3.2237,3.2336,3.2385,3.238,3.2289,3.2277,3.22,3.2174,3.2167,3.2138,3.2075,0,0]}]]